www.pogodaiklimat.ru

Погода и климат >> Архив погоды >> Дания >> Маяк Hammer Odde


ПОГОДА на Маяке Hammer Odde

  • Прогноз погоды на Маяке Hammer Odde
  • Монитор погоды на Маяке Hammer Odde

АРХИВ ПОГОДЫ на Маяке Hammer Odde

Время (UTC), дата Ветер
(напр.,м/с)
 
Видим.   Явления Облачность Т
(С)
Тd
(С)
f
(%)
Тe
(С)
Тes
(С)
Комфортность P
(гПа)
Po
(гПа)
Тmin
(С)
Tmax
(С)
R
(мм)
R24
(мм)
S
(см)
01 15.08 З 8 35 км 6/6 1500 м
[]
+17.2 +11.1 67 +16 +16 1014.2 1013.1
02 15.08 З 8 40 км 9/9 1500 м
[]
+17.2 +10.8 66 +16 +16 1014.0 1012.8
03 15.08 ЮЗ 6 40 км слаб. ливневой дождь 9/9 900 м
[]
+16.2 +11.5 74 +15 +15 1013.6 1012.5 0.1
04 15.08 ЮЗ 5 40 км в посл. час морось {ливн. осадки} н/о +16.6 +10.5 67 +16 +16 1013.6 1012.5
05 15.08 Ю 2 40 км 9/9 1500 м
[]
+16.5 +11.2 71 +17 +17 1013.4 1012.3
06 15.08 Ю 2 40 км {ливн. осадки, дождь} 9/0 2000 м
[]
+16.7 +11.3 70 +17 +18 1013.3 1012.1 +16.0 +17.4 0.0
07 15.08 Ю 2 35 км 9/0
[]
+17.7 +12.0 69 +18 +21 1012.9 1011.8
08 15.08 Ю 4 35 км 9/0
[]
+19.0 +12.0 64 +20 +23 1012.7 1011.6
09 15.08 ЮЗ 4 35 км 6/0
[]
+20.3 +11.5 57 +22 +27 комфорт 1012.4 1011.3
10 15.08 ЮЗ 5 30 км 6/0
[]
+20.0 +10.6 55 +21 +26 комфорт 1012.1 1011.0
11 15.08 Ю 3 40 км 9/9 1500 м
[]
+18.9 +11.0 60 +20 +21 1012.0 1010.9
12 15.08 Ю 3 40 км в посл. час дождь {ливн. осадки} н/о +18.5 +12.0 66 +19 +19 1011.8 1010.7 0.0
13 15.08 ЮЗ 2 35 км слаб. ливневой дождь 9/9 1230 м
[]
+18.8 +11.9 64 +20 +21 1011.6 1010.5
14 15.08 Ю 2 40 км {ливн. осадки} 9/9 1500 м
[]
+19.1 +9.0 52 +21 +21 комфорт 1011.1 1010.0
15 15.08 Ю 2 40 км слаб. ливневой дождь 9/9 1500 м
[]
+18.3 +8.4 52 +19 +20 1010.7 1009.6 0.0
16 15.08 Ю 3 35 км слаб. ливневой дождь 9/9 1500 м
[]
+18.0 +8.5 54 +18 +18 1010.7 1009.6
17 15.08 ЮВ 2 45 км {ливн. осадки} 9/9 1500 м
[]
+18.0 +10.1 60 +19 +19 1010.2 1009.0
18 15.08 ЮЗ 6
{11}
6000 м слаб. ливневой дождь 9/9 450 м
[]
+16.2 +14.3 89 +15 +15 1010.9 1009.7 +16.2 +20.6 0.0
19 15.08 В 1 25 км слаб. ливневой дождь 9/9 930 м
[]
+15.0 +13.9 93 +15 +15 1010.5 1009.4 0.7
20 15.08 ЮВ 1 35 км {ливн. осадки} 4/4 1500 м
[]
+14.9 +13.4 91 +15 +15 1010.2 1009.1
21 15.08 Ю 3 40 км {ливн. осадки} 9/9 1380 м
[]
+15.6 +12.3 81 +15 +15 1010.2 1009.1 0.7
22 15.08 З 1 15 км слаб. ливневой дождь 9/9 330 м
[]
+15.4 +14.5 94 +16 +16 1010.2 1009.1 3
23 15.08 Ю 3 11 км слаб. ливневой дождь 9/0 2000 м
[]
+14.9 +14.3 96 +14 +14 1010.0 1008.8 0.2
00 16.08 Ю 4
{10}
14 км {ливн. осадки, дождь} 1/1 900 м
[]
+15.6 +15.0 96 +15 +15 1009.7 1008.6 3
01 16.08 ЮЗ 7 11 км 4/4 420 м
[]
+17.2 +16.3 94 +16 +16 1009.7 1008.6
02 16.08 З 9 26 км 9/9 400 м
[]
+17.5 +15.7 89 +16 +16 1009.9 1008.8
03 16.08 З 8 17 км 1/1 400 м
[]
+17.3 +15.5 89 +16 +16 1009.9 1008.8
04 16.08 З 10 18 км 1/1 540 м
[]
+17.3 +15.0 86 +16 +16 1010.2 1009.1
05 16.08 З 10 19 км 4/4 450 м
[]
+17.6 +15.6 88 +16 +16 1010.6 1009.5
06 16.08 З 9 19 км 1/1 360 м
[]
+17.7 +15.3 86 +17 +17 1011.1 1010.0 +14.6 +17.7
07 16.08 З 9 21 км 4/4 400 м
[]
+18.0 +15.3 84 +17 +17 1011.5 1010.4
08 16.08 З 9 21 км 1/1 480 м
[]
+18.2 +15.0 82 +17 +18 1012.0 1010.9
09 16.08 З 8 24 км 1/1 420 м
[]
+18.6 +14.9 79 +19 +20 1012.3 1011.2
10 16.08 З 8 30 км 1/0
[]
+18.8 +15.0 79 +19 +21 1012.6 1011.5
11 16.08 З 8 26 км 1/0
[]
+19.4 +15.2 77 +20 +23 1012.8 1011.7
12 16.08 З 8 30 км 9/0
[]
+19.2 +14.7 75 +20 +21 1012.9 1011.8
13 16.08 ЮЗ 8 30 км 1/0
[]
+19.9 +14.9 73 +21 +23 комфорт 1013.0 1011.9
14 16.08 ЮЗ 9 20 км 1/1 500 м
[]
+19.7 +15.1 75 +21 +22 комфорт 1013.0 1011.9
15 16.08 З 8 26 км 4/4 450 м
[]
+19.5 +15.3 77 +21 +21 комфорт 1013.2 1012.1
16 16.08 ЮЗ 7 26 км ясно +19.3 +15.9 81 +20 +21 1013.1 1012.0
17 16.08 ЮЗ 7 40 км ясно +18.7 +15.4 81 +19 +19 1013.3 1012.2
18 16.08 З 8 30 км 9/0
[]
+18.3 +14.9 81 +18 +18 1013.4 1012.3 +17.6 +20.2
19 16.08 ЮЗ 7 30 км ясно +17.7 +15.0 84 +17 +17 1013.7 1012.6
20 16.08 ЮЗ 6 29 км ясно +17.7 +14.8 83 +17 +17 1014.0 1012.9
21 16.08 ЮЗ 7 26 км 1/1 660 м
[]
+17.6 +14.0 79 +17 +17 1014.1 1013.0
22 16.08 З 7 25 км 4/4 720 м
[]
+17.8 +14.0 78 +17 +17 1014.0 1012.9
23 16.08 З 6 30 км 6/0
[]
+17.5 +12.4 72 +17 +17 1013.9 1012.8
00 17.08 ЮЗ 4 35 км {дымка} 9/0
[]
+16.9 +12.7 76 +17 +17 1013.9 1012.8
01 17.08 Ю 3 35 км 9/0 2000 м
[]
+15.3 +12.8 85 +15 +15 1013.6 1012.4
02 17.08 Ю 3 40 км 1/0
[]
+15.1 +11.7 80 +15 +15 1012.9 1011.8
03 17.08 Ю 3 35 км {дымка} 1/0
[]
+15.8 +12.2 79 +15 +15 1012.4 1011.3
04 17.08 Ю 3 40 км 6/0
[]
+16.2 +13.4 83 +16 +16 1012.2 1011.1
05 17.08 Ю 3 35 км 1/1 1500 м
[]
+16.9 +14.3 85 +17 +17 1012.0 1010.9
06 17.08 Ю 2 35 км {дымка} 9/0
[]
+17.9 +15.1 84 +18 +20 1011.7 1010.5 +14.9 +18.4
07 17.08 Ю 3 35 км 9/0
[]
+18.2 +14.6 80 +19 +21 1011.5 1010.4
08 17.08 Ю 3 30 км 6/0
[]
+18.8 +13.8 73 +20 +24 1011.1 1010.0
09 17.08 Ю 4 35 км слаб. ливневой дождь 6/6 1260 м
[]
+19.1 +12.8 67 +20 +23 1010.8 1009.7 0.0
10 17.08 Ю 4 20 км слаб. ливневой дождь 9/9 900 м
[]
+18.2 +13.8 75 +18 +19 1010.7 1009.6 0.1
11 17.08 Ю 3 24 км слаб. ливневой дождь 6/6 1050 м
[]
+20.0 +14.3 70 +22 +26 комфорт 1010.2 1009.1 0.2
12 17.08 Ю 4 30 км в посл. час морось {ливн. осадки, дождь} 9/0 2000 м
[]
+20.0 +13.6 67 +22 +27 комфорт 1009.7 1008.6 0.3
13 17.08 ЮВ 3 30 км 9/9 1320 м
[]
+19.2 +14.2 73 +21 +22 комфорт 1009.1 1008.0
14 17.08 Ю 3 30 км 9/9 1500 м
[]
+20.1 +14.1 68 +23 +23 комфорт 1008.7 1007.6
15 17.08 Ю 4 30 км слаб. ливневой дождь 9/9 1410 м
[]
+19.8 +13.3 66 +22 +22 комфорт 1008.7 1007.6 0.0
16 17.08 Ю 3 35 км в посл. час дождь {ливн. осадки} 9/9 1500 м
[]
+19.6 +14.6 73 +22 +22 комфорт 1008.4 1007.3 0.1
17 17.08 Ю 4 30 км 9/9 1470 м
[]
+19.9 +13.9 68 +22 +22 комфорт 1008.2 1007.1
18 17.08 Ю 4 40 км {ливн. осадки, дождь} 9/9 1380 м
[]
+20.6 +13.6 64 +23 +23 комфорт 1008.2 1007.1 +17.7 +20.8 0.1
19 17.08 ЮЗ 4 30 км в посл. час дождь {ливн. осадки} 9/9 1380 м
[]
+18.9 +15.8 82 +20 +20 1008.2 1007.1
20 17.08 ЮЗ 3 29 км 9/9 1170 м
[]
+18.9 +16.1 84 +20 +20 1008.3 1007.2
21 17.08 Ю 2 35 км {ливн. осадки, дождь} 9/9 1380 м
[]
+18.4 +15.3 82 +19 +19 1008.0 1006.9 0.0
22 17.08 ЮЗ 3 40 км 9/9 1050 м
[]
+18.8 +15.2 80 +20 +20 1008.1 1007.0
23 17.08 ЮЗ 1 35 км в посл. час морось {ливн. осадки, дождь} 9/9 1170 м
[]
+18.0 +15.8 87 +19 +19 1007.9 1006.8
00 18.08 ЮВ 1 28 км {ливн. осадки, дождь} 9/9 1050 м
[]
+17.1 +15.4 90 +18 +18 1007.6 1006.5 0.0
01 18.08 Ю 2 35 км 9/9 1500 м
[]
+17.0 +15.0 88 +18 +18 1007.4 1006.3
02 18.08 Ю 3 3700 м дождь 9/9 870 м
[]
+16.7 +15.8 94 +16 +16 1007.5 1006.4 0.7
03 18.08 Ю 2 6000 м в посл. час дождь {морось} 10/10 1000 м
[]
+17.2 +16.7 97 +17 +17 1006.7 1005.6 2
04 18.08 Ю 2 6000 м дымка 4/0
[]
+16.7 +16.2 97 +17 +17 1006.4 1005.3
05 18.08 Ю 4 11 км 9/9 1500 м
[]
+17.1 +16.3 95 +17 +17 1006.5 1005.4
06 18.08 Ю 3 15 км {дождь, морось} 6/6 1260 м
[]
+17.9 +16.5 92 +18 +19 1006.2 1005.1 +16.5 +20.6
07 18.08 ЮЗ 3 22 км 4/0
[]
+18.8 +16.5 86 +20 +23 1006.2 1005.1
08 18.08 ЮЗ 3 29 км 4/0
[]
+19.8 +17.4 86 +23 +28 комфорт 1006.1 1005.0
09 18.08 ЮЗ 4 26 км 4/4 600 м
[]
+20.4 +17.0 81 +24 +28 комфорт 1006.2 1005.2
10 18.08 ЮЗ 3 26 км 9/0
[]
+20.3 +17.5 84 +24 +29 комфорт 1006.1 1005.0
11 18.08 ЮЗ 3 21 км 6/6 270 м
[]
+19.5 +17.7 89 +22 +26 комфорт 1006.2 1005.1
12 18.08 ЮЗ 4 24 км 9/0
[]
+19.4 +17.4 88 +21 +26 комфорт 1006.0 1004.9
13 18.08 ЮЗ 4 29 км 9/9 1080 м
[]
+19.7 +17.2 85 +22 +23 комфорт 1005.6 1004.5
14 18.08 ЮЗ 2 12 км морось {дождь} 10/10 450 м
[]
+19.4 +17.2 87 +22 +22 комфорт 1005.4 1004.3
15 18.08 ЮЗ 3 8000 м слаб. дождь {морось} н/о +18.6 +17.3 92 +20 +20 1005.1 1004.0 0.3
16 18.08 Ю 4 14 км в посл. час дождь {ливн. осадки} 9/9 1410 м
[]
+18.8 +17.3 91 +20 +20 1004.6 1003.5 0.3
17 18.08 Ю 4 15 км 9/9 1470 м
[]
+18.9 +17.1 89 +20 +20 1004.3 1003.2
18 18.08 ЮЗ 3 9000 м слаб. ливневой дождь 9/9 1020 м
[]
+18.7 +17.6 93 +20 +20 1003.9 1002.8 +17.8 +21.0 0.3
19 18.08 ЮЗ 5 2900 м сильн. ливневой дождь 9/9 180 м
[]
+18.5 +17.8 96 +19 +19 1003.9 1002.8 3
20 18.08 З 10 10 км слаб. ливневой дождь 9/9 120 м
[]
+17.8 +17.1 96 +17 +17 1004.6 1003.5 2
21 18.08 З 12
{14}
30 км {ливн. осадки, дождь} н/о +17.3 +15.3 88 +16 +16 1005.4 1004.3 5
22 18.08 З 12 30 км 4/4 400 м
[]
+16.7 +14.7 88 +15 +15 1006.1 1005.0
23 18.08 З 11 25 км 1/1 420 м
[]
+16.6 +14.8 89 +15 +15 1007.1 1006.0
00 19.08 З 10
{14}
21 км {ливн. осадки, дождь} 1/1 420 м
[]
+16.8 +14.8 88 +15 +15 1007.7 1006.6
01 19.08 З 9 20 км 6/6 450 м
[]
+17.2 +14.7 85 +16 +16 1008.2 1007.1
02 19.08 З 8 20 км ясно +16.7 +14.2 85 +15 +15 1008.5 1007.4
03 19.08 З 7 13 км 1/0 2000 м
[]
+16.7 +14.1 85 +15 +15 1009.7 1008.6
04 19.08 З 6 22 км 1/1 480 м
[]
+17.0 +14.3 84 +16 +16 1010.1 1009.0
05 19.08 ЮЗ 7 24 км 1/1 450 м
[]
+17.0 +14.2 84 +16 +16 1010.8 1009.7
06 19.08 ЮЗ 7 26 км 1/1 540 м
[]
+17.6 +14.6 83 +17 +17 1011.3 1010.2 +16.4 +18.7
07 19.08 ЮЗ 6 24 км 6/6 500 м
[]
+17.8 +14.6 82 +17 +18 1011.6 1010.5
08 19.08 ЮЗ 6 24 км 1/1 400 м
[]
+18.4 +15.2 82 +18 +21 1012.0 1010.9
09 19.08 ЮЗ 6 19 км 4/4 300 м
[]
+18.2 +15.5 84 +18 +20 1012.3 1011.2
10 19.08 ЮЗ 6 24 км 1/0
[]
+19.4 +15.5 78 +21 +25 комфорт 1012.7 1011.6
11 19.08 ЮЗ 6 25 км 1/0 2000 м
[]
+20.2 +15.3 73 +23 +27 комфорт 1013.0 1011.9
12 19.08 ЮЗ 5 29 км 6/6 420 м
[]
+19.4 +15.6 79 +21 +23 комфорт 1013.5 1012.4
13 19.08 З 9 26 км 4/4 450 м
[]
+19.6 +15.3 76 +21 +21 комфорт 1013.9 1012.8
14 19.08 ЮЗ 9 24 км 1/1 570 м
[]
+19.5 +14.8 74 +20 +21 1014.5 1013.4
15 19.08 З 9 24 км ясно +19.7 +15.2 75 +21 +22 комфорт 1014.6 1013.5
16 19.08 ЮЗ 8 27 км ясно +19.3 +14.7 75 +20 +20 1015.0 1013.9
17 19.08 ЮЗ 8 28 км ясно +19.2 +14.6 75 +20 +20 1015.4 1014.2
18 19.08 З 9 22 км ясно +18.5 +14.4 77 +18 +18 1015.8 1014.7 +17.5 +20.3
19 19.08 З 9 19 км ясно +18.4 +15.0 81 +18 +18 1016.3 1015.2
20 19.08 З 7 19 км ясно +18.2 +15.1 82 +18 +18 1016.8 1015.7
21 19.08 З 6 18 км ясно +17.9 +15.2 84 +17 +17 1017.0 1015.9
22 19.08 ЮЗ 5 20 км ясно +17.5 +14.6 83 +17 +17 1017.1 1016.0
23 19.08 ЮЗ 4 19 км 1/0
[]
+17.0 +14.9 87 +17 +17 1017.5 1016.4
00 20.08 ЮЗ 5 30 км 4/0 2000 м
[]
+17.2 +12.9 76 +17 +17 1017.8 1016.7
01 20.08 ЮЗ 5 29 км 4/4 1500 м
[]
+17.3 +13.4 78 +17 +17 1018.0 1016.9
02 20.08 ЮЗ 5 30 км 4/4 1320 м
[]
+17.3 +13.2 77 +17 +17 1018.4 1017.3
03 20.08 ЮЗ 7 30 км 4/4 1300 м
[]
+17.6 +13.5 77 +17 +17 1018.5 1017.4
04 20.08 ЮЗ 6 30 км 1/1 1260 м
[]
+17.3 +13.5 78 +16 +16 1018.9 1017.8
05 20.08 ЮЗ 4 26 км 1/1 1230 м
[]
+17.1 +14.0 82 +17 +17 1019.3 1018.2
06 20.08 ЮЗ 4 30 км ясно +17.8 +13.9 78 +18 +19 1019.7 1018.6 +16.6 +18.5
07 20.08 ЮЗ 4 30 км ясно +18.8 +14.0 74 +20 +22 1020.0 1018.9
08 20.08 ЮЗ 4 30 км ясно +19.6 +14.5 72 +21 +26 комфорт 1020.2 1019.1
09 20.08 ЮЗ 6 28 км ясно +20.1 +14.1 68 +22 +26 комфорт 1020.6 1019.5
10 20.08 ЮЗ 7 24 км 1/0
[]
+20.5 +13.6 65 +23 +25 комфорт 1020.7 1019.6
11 20.08 ЮЗ 7 30 км ясно +20.5 +13.0 62 +22 +25 комфорт 1020.8 1019.7
12 20.08 ЮЗ 8 22 км 1/0
[]
+20.3 +14.1 68 +22 +24 комфорт 1021.0 1019.9
13 20.08 ЮЗ 7 23 км ясно +20.3 +13.6 65 +22 +25 комфорт 1021.2 1020.1
14 20.08 ЮЗ 8 28 км 1/0
[]
+19.8 +13.6 67 +21 +22 комфорт 1021.4 1020.3
15 20.08 ЮЗ 6 26 км 1/0
[]
+19.5 +14.1 71 +21 +22 комфорт 1021.8 1020.6
16 20.08 ЮЗ 4 29 км 1/0
[]
+18.9 +13.3 70 +20 +21 1021.9 1020.7
17 20.08 ЮЗ 4 30 км 1/0
[]
+18.3 +12.6 69 +18 +19 1021.7 1020.6
18 20.08 ЮЗ 4 30 км 4/0
[]
+17.9 +13.4 75 +18 +18 1022.2 1021.1 +17.8 +20.7
19 20.08 З 4 26 км 9/0
[]
+17.8 +13.5 76 +18 +18 1022.4 1021.3
20 20.08 ЮЗ 3 24 км 9/0
[]
+17.0 +13.9 82 +17 +17 1022.6 1021.5
21 20.08 ЮЗ 3 29 км 9/0
[]
+16.8 +13.7 82 +17 +17 1022.7 1021.6
22 20.08 ЮЗ 3 30 км 9/0
[]
+16.3 +12.9 80 +16 +16 1022.9 1021.8
23 20.08 З 5 40 км 9/0
[]
+17.8 +12.2 70 +17 +17 1023.1 1022.0
00 21.08 З 6 40 км 9/0
[]
+17.7 +12.2 70 +17 +17 1023.0 1021.9
01 21.08 З 5 30 км 9/0
[]
+17.6 +12.6 72 +17 +17 1023.3 1022.2
02 21.08 З 4 35 км 9/0
[]
+17.1 +12.6 75 +17 +17 1023.5 1022.4
03 21.08 З 3 30 км 9/0
[]
+17.0 +13.5 80 +17 +17 1023.5 1022.4
04 21.08 З 4 27 км 4/0
[]
+16.7 +13.4 81 +16 +16 1023.9 1022.8
05 21.08 З 5 30 км ясно +16.9 +13.0 78 +16 +16 1024.4 1023.2
06 21.08 З 6 23 км ясно +17.0 +13.5 80 +16 +17 1024.9 1023.8 +15.7 +18.1
07 21.08 З 7 25 км ясно +17.1 +12.5 74 +16 +17 1025.3 1024.2
08 21.08 З 7 21 км ясно +17.4 +13.0 75 +16 +19 1025.6 1024.5
09 21.08 З 7 25 км ясно +17.9 +12.9 73 +17 +20 1025.8 1024.7
10 21.08 З 7 24 км ясно +18.1 +12.5 70 +17 +20 1025.8 1024.7
11 21.08 З 8 27 км ясно +18.5 +12.7 69 +18 +21 1025.8 1024.7
12 21.08 З 8 23 км ясно +19.0 +12.4 66 +19 +21 1025.8 1024.7
13 21.08 З 9 24 км 1/0
[]
+18.7 +13.0 69 +18 +19 1026.1 1024.9
14 21.08 З 9 25 км 1/0
[]
+18.7 +12.7 68 +18 +19 1026.1 1024.9
15 21.08 З 9 30 км ясно +18.6 +12.9 69 +18 +19 1026.3 1025.2
16 21.08 З 9 30 км ясно +18.6 +12.5 68 +18 +19 1026.3 1025.2
17 21.08 З 9 40 км ясно +18.2 +13.2 73 +17 +18 1026.6 1025.4
18 21.08 З 8 35 км ясно +17.8 +12.0 69 +17 +17 1026.9 1025.8 +16.9 +19.2
19 21.08 З 7 35 км ясно +17.7 +10.9 64 +17 +17 1027.3 1026.2
20 21.08 З 5 35 км ясно +17.5 +11.1 66 +17 +17 1027.6 1026.5
21 21.08 З 6 40 км ясно +17.2 +10.5 65 +16 +16 1028.0 1026.9
22 21.08 З 4 40 км ясно +17.1 +9.7 62 +17 +17 1028.2 1027.0
23 21.08 З 3 35 км ясно +16.4 +10.3 67 +16 +16 1028.5 1027.3
00 22.08 ЮЗ 2 35 км ясно +14.5 +10.6 77 +14 +14 1028.4 1027.3
01 22.08 З 4 40 км ясно +16.6 +12.1 75 +16 +16 1028.5 1027.4
02 22.08 З 4 40 км ясно +16.7 +12.0 74 +16 +16 1028.6 1027.5

 

Местоположение метеостанции Маяк Hammer Odde (Дания): широта 55.30 долгота 14.78 высота над уровнем моря 11 м.

В архиве по умолчанию представлена погода на Маяке Hammer Odde за последнюю неделю. Архивные данные за месяц целиком и за предыдущие месяцы, начиная с января 2011 года, Вы можете получить, выбрав интересующий диапазон дат из раскрывающегося списка и нажав кнопку "Ввод!".


*Определитесь, кто Вы:
робот инопланетянин человек

Внимание! Время в таблицах - всемирное. Для получения местного времени необходимо прибавить поправку, которая равна 1 ч.

Смотрите также архив погоды в соседних городах и на ближайших метеорологических станциях:

Погода в Рённе (Дания) (26 км)
Погода в Нексо (Дания) (34 км)
Погода в Скиллинге (Швеция) (35 км)
Погода в Рынге (Швеция) (69 км)
Погода в Хано (Швеция) (80 км)
Погода на Маяке Utklippan (Швеция) (93 км)
Погода в Мальмё аэропорту (Швеция) (93 км)
Погода в Хёрбю (Швеция) (94 км)
Погода в Карлскруне (Швеция) (107 км)
Погода в Арконе (Германия) (110 км)

Пояснения к столбцам:

Ветер - указаны скорость ветра в м/с - средняя за 10 мин, порывы в срок и между сроками (в фигурных скобках) и направление, откуда дует ветер: С - северный, СВ - северо-восточный, В - восточный, ЮВ - юго-восточный, Ю - южный, ЮЗ - юго-западный, З - западный, СЗ - северо-западный.
Видимость - горизонтальная дальность видимости в метрах или километрах. При видимости от 1 до 10 км при отсутствии осадков обычно наблюдается дымка, при ухудшении видимости до 1 км и менее - туман. В сухую погоду видимость может ухудшаться дымом, пылью или мглою.
Явления - указаны атмосферные явления, наблюдавшиеся в срок или в последний час перед сроком; фигурными скобками обозначены явления, наблюдавшиеся между сроками (за 1-3 часа до срока); квадратными скобками обозначены град или гололедные отложения с указанием их диаметра в мм.
Облачность - указаны через наклонную черту общая и нижняя облачность в баллах и высота нижней границы облаков в метрах; квадратными скобками обозначены формы облаков: Ci - перистые, Cs - перисто-слоистые, Cc - перисто-кучевые, Ac - высококучевые, As - высокослоистые, Sc - слоисто-кучевые, Ns - слоисто-дождевые, Cu - кучевые, Cb - кучево-дождевые. Подробнее классификацию облаков см. в Атласе облаков (PDF).
T - Температура воздуха - температура, измеренная на высоте 2 м над землей.
Td - Температура точки росы - температура, при понижении до которой содержащийся в воздухе водяной пар достигнет насыщения.
f - Относительная влажность воздуха - влажноcть воздуха, измеренная на высоте 2 м над землей.
Te - Эффективная температура - температура, которую ощущает одетый по сезону человек в тени. Характеристика душности погоды. При расчете учитывается влияние влажности воздуха и скорости ветра на теплоощущения человека.
Tes - Эффективная температура на солнце - температура, которую ощущает человек, с поправкой на солнечный нагрев. Характеристика знойности погоды. Зависит от высоты солнца над горизонтом, облачности и скорости ветра. Ночью, в пасмурную погоду, а также при ветре 12 м/с и более поправка равна нулю.
P - Атмосферное давление - приведенное к уровню моря атмосферное давление.
Po - Атмосферное давление - измеренное на уровне метеостанции атмосферное давление.
Tmin - Минимальная температура - минимум температуры воздуха на высоте 2 м над землей.
Tmax - Максимальная температура - максимум температуры воздуха на высоте 2 м над землей.
R - Количество осадков - Количество выпавших осадков за период времени, мм. При наведении курсора мыши на число - период времени, за который выпало указанное количество осадков.
R24 - Количество осадков - Количество выпавших осадков за 24 часа, мм.
S - Снежный покров - Высота снежного покрова, см. При наведении курсора мыши на число - состояние снежного покрова и степень покрытия местности в баллах.